This is the latest recevied weather packets stored in our database for station/object SR4DIG-13. If no packets are shown the sender has not sent any weather packets the latest 10 day(s).
| Time | Temp. | Humidity | Pressure | Rain* | Wind** | Luminosity | Snow |
|---|---|---|---|---|---|---|---|
| 1787890261 | 12.22° C | 80% | 1024.8 hPa | 0 mm | - | - | - |
| 1787890157 | 11.67° C | 81% | 1024.6 hPa | 0 mm | - | - | - |
| 1787890026 | 11.67° C | 81% | 1024.6 hPa | 0 mm | - | - | - |
| 1787889960 | 11.67° C | 81% | 1024.6 hPa | 0 mm | - | - | - |
| 1787889738 | 10.56° C | 82% | 1024.7 hPa | 0 mm | - | - | - |
| 1787889733 | 11.67° C | 82% | 1024.5 hPa | 0 mm | - | - | - |
| 1787889692 | 11.67° C | 82% | 1024.5 hPa | 0 mm | - | - | - |
| 1787889659 | 11.67° C | 82% | 1024.5 hPa | 0 mm | - | - | - |
| 1787889358 | 11.11° C | 82% | 1024.5 hPa | 0 mm | - | - | - |
| 1787889323 | 10.56° C | 82% | 1024.8 hPa | 0 mm | - | - | - |
| 1787889057 | 11.11° C | 83% | 1024.5 hPa | 0 mm | - | - | - |
| 1787888858 | 10.56° C | 81% | 1024.5 hPa | 0 mm | - | - | - |
| 1787888756 | 10.56° C | 82% | 1024.6 hPa | 0 mm | - | - | - |
| 1787888455 | 10.56° C | 82% | 1024.7 hPa | 0 mm | - | - | - |
| 1787888307 | 10.56° C | 81% | 1024.5 hPa | 0 mm | - | - | - |
| 1787888191 | 10.56° C | 82% | 1024.7 hPa | 0 mm | - | - | - |
| 1787888154 | 10.56° C | 82% | 1024.7 hPa | 0 mm | - | - | - |
| 1787887853 | 10.56° C | 82% | 1024.8 hPa | 0 mm | - | - | - |
| 1787887537 | 10.56° C | 81% | 1024.5 hPa | 0 mm | - | - | - |
| 1787887488 | 10.56° C | 81% | 1024.5 hPa | 0 mm | - | - | - |
| 1787887073 | 10.56° C | 81% | 1024.5 hPa | 0 mm | - | - | - |
| 1787887015 | 10.56° C | 81% | 1024.5 hPa | 0 mm | - | - | - |
| 1787886715 | 10.56° C | 81% | 1024.5 hPa | 0 mm | - | - | - |
| 1787886414 | 10.56° C | 80% | 1024.5 hPa | 0 mm | - | - | - |
| 1787886113 | 10.56° C | 80% | 1024.6 hPa | 0 mm | - | - | - |
* Rain latest hour (hover to see other rain measurements)
** Current wind speed in m/s (hover to see current wind gust speed)